Location: Crescent
(42.8242°N, 73.7329°W)
Time: 02:58:00
(UTC+00:00)

Explorer 7 - Pass Details

Date: 17 February 2026
Orbit: 430 x 542 km, 50.2° (Epoch: 7 March)

Event Time Altitude Azimuth Distance (km) Brightness Sun altitude
Rises 23:12:27 0° 293° (WNW) 2,498 11.3 -8.6°
Reaches altitude 10° 23:14:49 10° 306° (NW) 1,644 10.0 -9.0°
Maximum altitude 23:18:00 26° 5° (N) 989 8.0 -9.6°
Enters shadow 23:20:52 12° 60° (ENE) 1,563 8.6 -10.1°
Drops below altitude 10° 23:21:18 10° 64° (ENE) 1,704 - -10.2°
Sets 23:23:48 0° 77° (ENE) 2,612 - -10.6°
